Location: Falconara Alta
(43.6167°N, 13.4000°E)
Time: 03:55:01
(UTC+00:00)

Cosmos 1174 - Pass Details

Date: 09 April 2020
Orbit: 370 x 1148 km, 66.1° (Epoch: 02 June)

Event Time Altitude Azimuth Distance (km) Brightness Sun altitude
Rises 19:55:40 0° 328° (NNW) 2,703 8.5 -22.6°
Reaches altitude 10° 19:57:39 10° 329° (NNW) 1,907 7.5 -22.8°
Maximum altitude 20:01:58 83° 58° (ENE) 694 4.1 -23.5°
Enters shadow 20:02:27 71° 125° (SE) 735 4.1 -23.5°
